Dewpoint
12 3 -3 -11 -14 -11 -3 -3 11 5 5 5 7 4 2 2 4 9 9 12 12 11 10 10 9 4 8 9 10 8 8 10 10
3 -4 -8 -15 -15 -9 -5 1 9 2 4 5 5 -0 4 8 10 11 11 10 10 10 10 9 9 5 9 10 10 9 8 8 9
-7 -11 -14 -17 -14 -3 -9 6 0 2 4 4 1 7 10 10 10 10 9 9 9 9 8 10 8 8 9 10 10 10 9 8 8
-10 -13 -18 -18 -15 -10 -9 0 2 5 6 4 5 10 10 11 9 9 9 10 9 9 9 8 9 10 10 9 9 9 9 8 8
-12 -16 -17 -16 -15 -13 -11 2 3 6 5 3 7 10 10 10 9 8 9 9 9 9 8 9 8 9 9 9 8 7 7 5 7
-12 -17 -17 -16 -15 -12 -8 5 5 8 5 3 8 10 9 9 9 8 9 9 9 9 8 9 8 8 9 8 6 4 2 7 6
-11 -15 -17 -13 -15 -12 1 7 6 7 6 6 9 10 9 8 7 8 9 9 9 9 8 7 8 7 7 7 6 6 6 7 8
-9 -13 -12 -12 -13 -11 6 4 4 5 6 6 9 9 8 8 8 8 9 9 8 8 8 8 8 8 8 7 7 4 8 6 6
-4 -13 -10 -9 -10 -9 -0 2 6 7 7 7 9 9 9 8 8 9 8 8 10 8 7 8 8 8 8 7 7 7 5 6 7
-1 -11 -10 -8 -8 -7 -0 3 6 7 5 9 9 9 8 8 6 8 8 9 9 8 7 7 7 7 7 7 7 6 7 7 6
4 -8 -8 -9 -7 -5 1 3 6 6 7 9 9 8 8 7 7 8 8 8 8 8 8 8 8 7 8 7 7 5 7 7 7
8 -5 -8 -4 -6 -3 5 5 5 6 7 8 9 8 8 8 4 5 7 7 8 8 8 8 8 7 6 7 6 6 7 5 6
10 -2 -7 -5 -3 -1 4 5 5 7 8 8 8 8 8 8 6 4 1 1 3 8 7 7 7 7 7 7 7 5 4 5 5
10 1 -6 -3 -3 1 5 5 6 8 8 8 8 7 7 7 8 6 4 3 3 2 6 6 7 7 7 7 6 6 4 2 -1
9 1 -2 -2 -4 5 7 7 8 9 8 8 9 9 7 7 7 7 6 4 0 -0 -1 -4 -1 3 6 7 6 6 3 4 5
9 3 1 1 -4 2 8 9 9 9 9 8 9 9 8 7 7 7 7 6 2 -3 -4 -6 -6 -5 -7 1 6 6 6 1 4
5 6 5 3 -3 4 9 9 9 8 8 8 8 8 8 7 6 6 6 7 5 -0 -6 -8 -8 -7 -8 -9 -9 2 6 5 4
7 5 7 5 -1 6 8 9 8 8 8 8 7 7 7 8 7 6 6 6 5 1 -3 -5 -6 -7 -8 -10 -11 -9 4 6 6
7 5 6 7 1 7 8 8 7 7 8 8 7 7 6 6 6 6 6 4 4 -0 -2 -4 -5 -5 -7 -9 -9 -9 -1 4 5
6 6 4 8 4 3 7 6 7 8 7 8 7 7 3 2 2 3 4 4 3 -1 -2 -3 -4 -4 -5 -7 -9 -8 -6 4 3
Wind_Speed
13 12 10 7 8 9 10 12 16 13 15 14 15 12 12 16 20 24 23 19 20 17 17 16 13 16 22 19 17 14 16 18 17
13 11 10 9 9 10 12 14 15 15 13 16 15 12 21 22 22 20 21 17 14 15 15 17 14 22 22 17 13 12 12 11 12
12 10 10 10 10 11 13 16 15 14 16 17 15 23 23 19 19 19 14 11 15 13 13 14 16 23 21 15 13 13 11 9 8
11 10 11 11 12 12 15 17 16 15 15 14 21 21 19 20 16 15 14 15 15 13 17 14 15 15 16 12 9 10 12 11 13
10 11 12 13 12 14 17 18 17 16 14 14 23 20 20 16 14 12 13 14 15 12 14 15 12 13 13 12 8 5 5 3 13
11 12 13 14 13 16 19 18 17 16 15 17 22 19 17 12 11 14 13 14 13 13 13 14 14 13 12 12 12 12 12 15 13
12 14 14 14 14 18 20 18 20 18 18 21 20 18 15 11 9 13 12 12 12 14 13 14 13 12 13 12 13 14 14 14 17
15 16 17 16 17 21 22 20 20 19 19 19 18 18 14 11 8 12 13 12 14 12 11 14 12 14 13 14 14 13 16 15 14
18 18 18 17 20 25 24 23 22 20 18 21 20 18 14 11 9 13 13 13 13 10 11 13 14 11 13 13 14 12 13 14 14
21 21 20 19 23 27 26 25 24 20 20 23 19 17 13 9 11 13 14 15 12 11 10 11 12 11 11 13 12 12 13 12 13
24 23 22 20 25 27 27 27 25 22 22 22 18 15 13 8 13 13 14 14 13 11 11 10 11 12 11 10 11 10 11 11 11
27 25 24 22 27 30 30 29 25 24 23 21 20 17 14 9 10 11 13 13 9 10 11 10 10 9 8 9 10 8 8 9 10
29 27 26 25 29 33 33 31 29 26 23 22 21 19 16 10 11 8 8 7 9 11 11 9 10 8 8 8 7 8 7 8 9
32 29 28 27 31 35 35 33 30 30 27 23 24 20 16 13 11 8 8 5 4 7 10 11 11 8 7 5 5 6 5 5 8
33 31 30 30 34 37 36 33 30 31 28 26 24 21 18 15 11 9 8 5 5 8 8 5 7 8 7 6 5 4 3 6 9
32 32 33 33 37 41 38 35 35 33 31 27 25 22 21 17 15 13 11 8 6 7 9 8 7 6 5 5 5 3 3 4 6
29 34 34 35 40 43 42 40 38 36 31 33 30 24 23 22 21 18 16 13 10 9 9 9 8 8 6 4 3 3 2 2 6
31 33 30 36 42 46 44 42 42 41 38 35 27 14 12 26 25 23 21 18 14 13 12 11 10 9 7 6 5 2 4 2 4
33 37 34 38 41 48 46 42 42 41 42 40 35 25 16 15 15 31 28 23 19 16 15 13 12 10 8 7 7 5 5 4 5
38 43 47 40 41 47 47 44 43 42 41 43 41 33 18 13 10 9 29 28 23 20 18 16 14 13 11 9 9 8 8 6 5
Wind_Direction
179 194 198 198 178 167 161 153 147 161 144 138 138 127 120 105 111 95 101 102 108 112 113 111 104 98 97 93 86 83 88 89 89
195 195 197 198 185 168 167 153 166 152 144 138 132 127 119 109 110 112 118 118 131 120 110 114 103 118 100 93 96 87 91 91 81
200 199 200 197 189 173 170 160 169 155 140 135 123 125 121 131 130 121 134 122 107 108 146 110 102 124 100 102 99 87 80 86 79
203 200 202 197 195 179 174 171 167 157 145 136 136 131 132 138 130 128 123 118 108 106 102 102 108 111 109 104 104 97 78 82 68
216 204 203 203 194 179 177 173 167 160 152 145 146 141 145 147 143 139 117 116 113 104 108 100 104 116 111 109 98 133 82 89 64
214 210 208 206 189 180 174 171 166 165 158 152 150 149 152 149 160 137 126 125 130 110 108 108 101 103 99 92 80 83 78 72 67
220 211 215 204 187 180 169 173 172 168 164 156 153 156 163 169 148 130 132 128 128 117 106 114 99 96 94 91 82 77 80 73 73
222 213 206 204 186 181 175 176 176 174 171 163 162 166 166 168 172 137 136 132 133 116 107 106 106 101 101 91 89 82 80 71 77
224 218 211 205 189 187 183 178 175 175 178 168 171 169 170 166 162 145 134 132 125 139 119 113 106 102 97 92 94 90 81 81 66
223 219 213 208 192 193 185 179 175 174 171 168 179 181 183 178 168 150 143 131 152 126 117 113 116 109 101 95 92 79 85 75 81
225 221 215 207 196 192 189 183 177 173 173 176 184 187 177 187 162 148 141 147 148 131 122 119 116 108 103 101 88 81 83 87 79
226 222 218 209 196 191 188 184 179 173 177 187 189 187 181 189 168 152 145 142 144 137 139 126 118 112 106 101 95 95 83 84 77
226 224 218 208 198 191 191 186 180 178 181 188 190 191 191 186 169 160 158 146 157 151 143 137 123 121 111 99 86 84 90 78 78
220 222 217 206 199 191 191 186 185 183 183 191 193 193 192 193 189 186 175 184 208 196 157 153 143 133 125 110 100 89 99 101 91
215 219 215 206 200 193 190 186 181 179 183 190 194 191 199 202 208 208 203 210 211 211 211 201 164 137 138 124 104 103 82 91 84
227 217 213 207 203 196 192 184 179 182 189 190 186 194 201 203 215 220 224 227 227 228 217 217 209 177 163 154 136 87 55 71 104
231 222 215 210 202 196 194 191 183 188 188 191 186 185 199 212 218 220 225 233 232 233 223 210 209 202 212 221 216 140 122 65 92
218 212 221 216 209 199 198 198 195 187 189 196 188 182 207 214 223 225 229 232 233 229 223 219 216 217 210 218 241 247 155 139 106
222 219 226 226 215 203 201 203 205 199 190 195 203 200 206 199 220 224 232 226 230 224 223 223 224 224 224 219 225 228 202 185 168
205 212 221 229 220 209 207 208 208 209 202 200 199 203 212 214 218 223 224 228 225 224 223 224 224 228 231 230 228 224 225 201 215
Height
1539 1540 1542 1544 1545 1546 1547 1550 1552 1552 1554 1556 1557 1559 1559 1560 1560 1561 1564 1566 1567 1567 1568 1566 1567 1567 1568 1569 1569 1568 1567 1566 1565
1538 1540 1542 1544 1546 1546 1548 1550 1552 1554 1556 1557 1559 1559 1561 1562 1564 1566 1566 1568 1569 1569 1569 1569 1569 1570 1570 1571 1571 1571 1570 1569 1567
1537 1540 1542 1544 1546 1547 1549 1551 1553 1555 1558 1559 1560 1561 1563 1565 1566 1568 1569 1570 1570 1570 1569 1570 1571 1571 1572 1573 1573 1572 1572 1570 1569
1537 1539 1541 1544 1545 1547 1550 1552 1555 1557 1559 1561 1563 1564 1566 1568 1570 1571 1571 1571 1571 1571 1571 1572 1572 1573 1574 1574 1574 1573 1572 1571 1570
1537 1539 1541 1543 1545 1547 1550 1553 1556 1559 1561 1562 1564 1566 1568 1570 1572 1573 1572 1573 1573 1573 1573 1573 1574 1574 1574 1575 1575 1573 1573 1572 1572
1536 1538 1540 1542 1544 1547 1550 1553 1558 1561 1562 1563 1566 1568 1570 1572 1573 1573 1575 1575 1575 1575 1575 1575 1576 1575 1575 1575 1575 1574 1574 1574 1574
1536 1538 1540 1541 1543 1546 1550 1554 1557 1561 1564 1565 1567 1570 1572 1573 1574 1575 1576 1577 1577 1576 1576 1576 1578 1577 1577 1576 1576 1576 1576 1576 1576
1534 1536 1538 1540 1543 1545 1548 1553 1559 1562 1565 1567 1569 1572 1574 1575 1576 1577 1578 1579 1579 1578 1578 1578 1579 1580 1579 1579 1579 1578 1579 1578 1577
1532 1534 1536 1539 1542 1544 1546 1552 1558 1563 1566 1569 1571 1573 1575 1576 1577 1578 1579 1581 1582 1581 1580 1580 1580 1581 1581 1581 1581 1581 1580 1580 1580
1530 1532 1534 1538 1540 1544 1547 1550 1555 1562 1565 1569 1572 1574 1576 1577 1578 1579 1580 1582 1583 1582 1582 1582 1581 1582 1582 1583 1583 1583 1582 1582 1581
1528 1531 1534 1536 1539 1543 1547 1550 1555 1560 1566 1569 1573 1575 1577 1578 1579 1580 1581 1583 1584 1584 1584 1584 1583 1584 1584 1583 1584 1584 1583 1583 1583
1525 1529 1533 1536 1537 1541 1547 1550 1555 1559 1565 1570 1573 1575 1578 1579 1581 1581 1582 1583 1585 1585 1586 1586 1585 1585 1585 1586 1585 1585 1584 1584 1584
1522 1526 1530 1534 1537 1539 1544 1548 1552 1558 1563 1568 1572 1575 1578 1580 1582 1583 1583 1584 1586 1586 1586 1587 1586 1586 1586 1587 1586 1585 1585 1585 1585
1517 1522 1527 1531 1536 1538 1542 1547 1551 1556 1562 1567 1571 1575 1578 1580 1582 1583 1584 1584 1585 1587 1586 1586 1586 1586 1587 1588 1587 1587 1586 1586 1585
1512 1518 1525 1527 1532 1538 1541 1546 1550 1555 1561 1566 1571 1575 1577 1580 1581 1582 1583 1584 1585 1586 1586 1586 1586 1585 1586 1588 1589 1588 1587 1587 1587
1508 1514 1521 1525 1529 1534 1540 1544 1548 1553 1558 1564 1570 1574 1576 1578 1580 1581 1582 1583 1584 1584 1585 1586 1586 1586 1585 1586 1588 1589 1589 1587 1588
1502 1511 1519 1524 1527 1530 1536 1541 1544 1547 1556 1559 1566 1572 1575 1575 1577 1579 1579 1580 1582 1583 1584 1585 1585 1585 1585 1586 1586 1588 1589 1589 1589
1493 1505 1514 1523 1526 1525 1532 1538 1541 1541 1550 1557 1559 1567 1568 1571 1574 1575 1576 1577 1579 1580 1582 1583 1584 1585 1584 1585 1585 1586 1588 1589 1590
1487 1495 1515 1524 1523 1523 1528 1535 1539 1540 1544 1552 1556 1560 1564 1567 1569 1571 1572 1573 1575 1577 1579 1580 1582 1583 1584 1584 1584 1585 1586 1587 1589
1484 1491 1512 1517 1517 1521 1526 1531 1536 1540 1542 1546 1550 1555 1560 1563 1564 1564 1566 1569 1571 1573 1575 1577 1579 1581 1582 1582 1583 1584 1584 1585 1586